Weather observations for the past three days for
Plattsburgh International Airport
Imperial (Metric)
Date Time (edt) Wind (mph) Vis. (mi.) Weather Sky Cond. Temperature (ºF) Relative Humidity Wind Chill (°F) Heat Index (°F) Pressure Precipitation (in)
Air Dwpt 6 hour altimeter (in) sea level (mb) 1 hr 3 hr 6 hr
Max. Min.
22 20:53 Calm 10.00 Overcast BKN027 BKN050 OVC065 66 64 93% 29.94 1013.7 0.01
22 19:53 Calm 10.00 Light Rain SCT020 BKN031 OVC080 68 64 73 68 87% 29.95 1014.1
22 18:53 Calm 10.00 Light Rain OVC100 70 64 82% 29.95 1014.0
22 17:53 Calm 10.00 Overcast FEW034 OVC120 70 63 79% 29.95 1014.2
22 16:53 E 7 10.00 Mostly Cloudy FEW022 BKN046 71.1 62.1 73% 29.97 1014.8
22 15:53 Calm 10.00 Overcast OVC047 71.1 62.1 73% 29.99 1015.4
22 14:53 NE 5 10.00 Overcast BKN029 BKN033 OVC045 70 63 79% 30 1015.8
22 13:53 N 5 10.00 Overcast SCT011 OVC026 69.1 64 69.1 63 84% 30.02 1016.4 0.02
22 12:53 Calm 10.00 Mostly Cloudy SCT026 BKN110 69.1 63 81% 30.03 1016.8
22 11:53 Calm 10.00 Light Rain BKN030 OVC055 68 64 87% 30.05 1017.6
22 10:53 Calm 10.00 Light Rain SCT008 SCT046 OVC070 66.9 63 87% 30.05 1017.5 0.02
22 09:53 Calm 10.00 Overcast SCT005 OVC070 64.9 63 93% 30.05 1017.7 0.01
22 08:53 Calm 7.00 Light Rain OVC038 64 62.1 93% 30.07 1018.2 0.01
22 07:53 Calm 3.00 Light Rain Fog/Mist FEW013 BKN055 OVC070 63 61 66.9 63 93% 30.07 1018.2 0.11 0.34
22 06:53 Calm 3.00 Rain Fog/Mist BKN017 OVC046 64 63 96% 30.06 1018.0 0.14
22 05:53 NW 5 5.00 Light Rain Fog/Mist OVC018 64 62.1 93% 30.07 1018.1 0.05
22 04:53 NW 3 6.00 Light Rain Fog/Mist BKN017 BKN037 OVC050 64.9 62.1 90% 30.05 1017.6 0.04 0.04
22 03:53 NW 6 10.00 Overcast OVC016 66 61 84% 30.05 1017.6
22 02:53 NW 6 10.00 Overcast OVC044 66.9 61 81% 30.06 1017.7
22 01:53 NW 6 10.00 Overcast OVC042 66.9 61 72 66 81% 30.06 1018.0
22 00:53 NW 5 10.00 Overcast OVC045 66.9 61 81% 30.08 1018.5
21 23:53 W 3 10.00 Overcast OVC047 66 62.1 87% 30.08 1018.7
21 22:53 NW 7 10.00 Overcast BKN050 OVC090 69.1 61 76% 30.1 1019.1
21 21:53 N 8 10.00 Overcast BKN080 OVC100 70 60.1 71% 30.11 1019.6
21 20:53 NW 5 10.00 Overcast OVC065 70 61 73% 30.11 1019.6
21 19:53 W 5 10.00 Overcast OVC095 72 61 75.9 72 68% 30.12 1019.8
21 18:53 Calm 10.00 Overcast OVC090 73 61 66% 30.12 1019.9
21 17:53 N 10 10.00 Overcast BKN075 OVC090 73.9 61 64% 30.14 1020.6
21 16:53 N 9 10.00 Overcast OVC070 73 61 66% 30.15 1021.0
21 15:53 NE 7 10.00 Overcast OVC075 73.9 60.1 62% 30.16 1021.1
21 14:53 NE 12 10.00 Overcast OVC085 75 60.1 60% 77 30.17 1021.7
21 13:53 NE 10 10.00 Mostly Cloudy BKN085 75 62.1 75.9 68 64% 77 30.19 1022.3
21 12:53 NE 9 10.00 Overcast OVC100 73 61 66% 30.21 1022.8
21 11:53 E 6 10.00 Mostly Cloudy SCT080 BKN110 73.9 61 64% 30.21 1023.1
21 10:53 Calm 10.00 Overcast OVC110 72 59 64% 30.22 1023.4
21 09:53 N 8 10.00 Mostly Cloudy BKN075 70 57.9 66% 30.24 1023.9
21 08:53 N 9 10.00 Mostly Cloudy BKN120 69.1 57.9 68% 30.24 1023.8
21 07:53 NW 7 10.00 Overcast OVC042 68 59 70 66 73% 30.23 1023.7
21 06:53 NW 6 10.00 Mostly Cloudy BKN045 68 59 73% 30.22 1023.3
21 05:53 NW 8 10.00 Mostly Cloudy BKN065 66.9 60.1 79% 30.21 1023.1
21 04:53 NW 3 10.00 Overcast OVC046 68 63 84% 30.21 1023.0
21 03:53 NW 7 10.00 Overcast SCT034 OVC049 69.1 66 90% 30.21 1022.8
21 02:53 NW 6 10.00 Mostly Cloudy BKN028 69.1 66.9 93% 30.2 1022.6
21 01:53 Calm 2.50 Fog/Mist CLR 70 69.1 72 69.1 97% 30.2 1022.6 0.57
21 00:53 Calm 6.00 Fog/Mist BKN045 71.1 69.1 94% 30.21 1022.9
20 23:53 Calm 9.00 Overcast BKN042 OVC050 71.1 70 96% 30.22 1023.2
20 22:53 Calm 10.00 Mostly Cloudy BKN060 BKN090 71.1 70 96% 30.22 1023.1 0.01 0.57
20 21:53 Calm 5.00 Light Rain Fog/Mist FEW047 BKN075 OVC110 72 70 94% 30.21 1022.9 0.19
20 20:53 S 7 1.00 Thunderstorm in Vicinity Heavy Rain Fog/Mist BKN029 BKN049 OVC060 71.1 70 96% 30.2 1022.5 0.37
20 19:53 SW 3 7.00 Light Rain FEW045 SCT090 BKN110 71.1 70 75 71.1 96% 30.2 1022.6 0.07 1.74
20 18:53 Vrbl 3 G 18 1.50 Thunderstorm Rain Fog/Mist SCT019 BKN029 OVC055 71.1 69.1 94% 30.21 1022.8 0.46
20 17:53 E 8 10.00 A Few Clouds FEW011 FEW085 FEW100 72 69.1 91% 30.18 1022.0
20 16:53 SE 9 10.00 A Few Clouds FEW090 75 71.1 88% 75 30.18 1022.0 0.04 1.21
20 15:53 S 8 3.00 Rain Fog/Mist SCT060 OVC100 72 70 94% 30.19 1022.3 0.08
20 13:53 E 7 10.00 Mostly Cloudy BKN050 BKN070 82 73 88 75.9 74% 87 30.17 1021.6 0.03 0.03
20 12:53 SE 9 10.00 Mostly Cloudy BKN049 BKN070 82.9 72 70% 88 30.19 1022.2
20 11:53 SE 7 10.00 A Few Clouds FEW046 86 72 63% 92 30.21 1022.8
20 10:53 SE 8 10.00 A Few Clouds FEW048 81 72 74% 85 30.21 1023.0
20 09:53 Calm 10.00 Fair CLR 82 73 74% 87 30.22 1023.3
20 08:53 SE 5 10.00 Fair CLR 75.9 71.1 85% 76 30.22 1023.3
20 07:53 E 5 10.00 Fair CLR 77 71.1 82 70 82% 79 30.22 1023.1
20 06:53 Calm 10.00 Fair CLR 80.1 72 76% 84 30.21 1023.0
20 05:53 S 3 5.00 Fog/Mist CLR 71.1 69.1 94% 30.2 1022.4
20 04:53 Calm 8.00 Fair CLR 71.1 70 96% 30.19 1022.1
20 03:53 SW 5 10.00 Fair CLR 75 71.1 88% 75 30.19 1022.2
20 02:53 Calm 10.00 Fair CLR 73 69.1 87% 30.2 1022.4
20 01:53 S 5 10.00 Fair CLR 72 70 82 72 94% 30.2 1022.4
20 00:53 Calm 10.00 Fair CLR 75 72 90% 74 30.2 1022.4
19 23:53 S 3 10.00 Fair CLR 78.1 72 82% 80 30.2 1022.4
19 22:53 S 3 10.00 Fair CLR 75.9 72 88% 76 30.2 1022.4
19 21:53 Calm 10.00 Fair CLR 78.1 73 85% 81 30.2 1022.4
Date Time (edt) Wind (mph) Vis. (mi.) Weather Sky Cond. Air Dwpt Max. Min. Relative Humidity Wind Chill (°F) Heat Index (°F) altimeter (in) sea level (mb) 1 hr 3 hr 6 hr
6 hour
Temperature (ºF) Pressure Precipitation (in)